Hourly Data Report for October 20, 2015

All times are specified in Local Standard Time (LST). Add 1 hour to adjust for Daylight Saving Time where and when it is observed.

POND INLET A
NUNAVUT

72°41'22.000" N
77°58'08.000" W
61.60 m
2403206
71095
YIO

Download Data

Hourly Data (October 2015)
Hourly Data Report for October 20, 2015
Temp Definition
°C
Dew Point Temp Definition
°C
Rel Hum Definition
%
Wind Dir Definition
10's deg

Wind Spd Definition
km/h
Visibility Definition
km
Stn Press Definition
kPa
Hmdx Definition


Wind Chill Definition


Weather Definition


TIME
00:00 Legend Double Dagger -8.6 -11.7 79 16 28 16.1 100.62   -17 LegendNANA
01:00 Legend Double Dagger -8.9 -11.4 82 15 24 16.1 100.61   -17 LegendNANA
02:00 Legend Double Dagger -8.8 -10.7 86 16 26 16.1 100.59   -17 LegendNANA
03:00 Legend Double Dagger -8.7 -10.5 87 16 22 16.1 100.60   -17 LegendNANA
04:00 Legend Double Dagger -8.7 -10.6 86 16 21 16.1 100.62   -16 LegendNANA
05:00 Legend Double Dagger -8.9 -10.1 91 16 21 16.1 100.63   -17 LegendNANA
06:00 Legend Double Dagger -11.9 -13.2 90 14 17 16.1 100.61   -20 LegendNANA
07:00 Legend Double Dagger -13.4 -14.9 89 16 22 16.1 100.59   -23 LegendNANA
08:00 Legend Double Dagger -11.5 -14.0 82 15 21 16.1 100.58   -20 LegendNANA
09:00 Legend Double Dagger -9.5 -11.9 83 16 17 16.1 100.55   -17 LegendNANA
10:00 Legend Double Dagger -10.6 -12.4 87 15 21 16.1 100.52   -19 LegendNANA
11:00 Legend Double Dagger -10.4 -12.6 84 17 17 16.1 100.51   -18 LegendNANA
12:00 Legend Double Dagger -10.0 -13.3 77 19 15 16.1 100.49   -17 LegendNANA
13:00 Legend Double Dagger -9.1 -10.9 87 22 17 16.1 100.48   -16 LegendNANA
14:00 Legend Double Dagger -8.0 -10.1 85 18 17 16.1 100.46   -15 LegendNANA
15:00 Legend Double Dagger -6.9 -10.6 75 20 24 16.1 100.45   -15 LegendNANA
16:00 Legend Double Dagger -7.6 -10.4 80 21 17 6.4 100.47   -14 Snow
17:00 Legend Double Dagger -7.3 -9.6 84 23 15 4.8 100.43   -13 Snow
18:00 Legend Double Dagger -7.1 -10.0 80 22 15 8.1 100.40   -13 Snow
19:00 Legend Double Dagger -7.2 -8.9 88 18 15 2.8 100.35   -13 Snow
20:00 Legend Double Dagger -7.5 -9.0 89 30 8 16.1 100.33   -12 LegendNANA
21:00 Legend Double Dagger -7.4 -9.2 87 21 5 8.1 100.29   -10 Snow
22:00 Legend Double Dagger -7.3 -9.1 87 26 17 4.8 100.25   -14 Snow
23:00 Legend Double Dagger -8.2 -9.3 92 28 24 2.0 100.19   -16 Snow

Notes on Data Quality.

Legend

  • E = Estimated
  • M = Missing
  • NA = Not Available
  • ‡ = Partner data that is not subject to review by the National Climate Archives
Date modified: